Regional Weather Roundup
Issued by NWS Huntsville, AL

Home | Current Version | Previous Version | Text Only | Print | Product List | Glossary On
Versions: 1 2 3 4 5 6 7 8 9 10 11 12 13 14 15 16 17 18 19 20 21 22 23 24 25 26 27 28 29 30 31 32 33 34 35 36 37 38 39 40 41 42 43 44 45 46 47 48 49 50
869
ASUS44 KHUN 291610
RWRHUN

WEATHER ROUNDUP FOR THE TENNESSEE VALLEY
NATIONAL WEATHER SERVICE HUNTSVILLE AL
1100 AM CDT FRI JUL 29 2016

ALZ001>004-291700-
NORTHWEST ALABAMA

CITY           SKY/WX    TMP DP  RH WIND       PRES   REMARKS
COURTLAND HCN    N/A     81 N/A N/A W6          N/A
RUSSELLVILLE     N/A     79 N/A N/A MISG        N/A
SHOALS AIRPORT MOSUNNY   83  72  69 W9        30.03S
SHOALS TVA RES   N/A     81 N/A N/A MISG        N/A
$$

ALZ005>007-016-291700-
NORTH CENTRAL ALABAMA

CITY           SKY/WX    TMP DP  RH WIND       PRES   REMARKS
CULLMAN AG STN   N/A     79 N/A N/A W6          N/A
DECATUR AP     PTSUNNY   80  72  76 W7        30.03F
HUNTSVILLE AP  CLOUDY    80  70  71 SW7       30.03S
HUN NWS/UAH      N/A     80  70  70 SW6         N/A
MERIDIANVILLE  CLOUDY    79  66  65 SW7       30.04S
REDSTONE ARSN  CLOUDY    79  74  84 SW8       30.02S
VINEMONT AP    PTSUNNY   80  71  74 S6        30.07F
$$

ALZ008>010-291700-
NORTHEAST ALABAMA

CITY           SKY/WX    TMP DP  RH WIND       PRES   REMARKS
ALBERTVILLE    CLOUDY    81  75  83 W8G16     30.05S
FORT PAYNE     CLOUDY    81  68  65 W7        30.04S
SCOTTSBORO AP  CLOUDY    82  72  69 W7        30.03S
SCOTTSBORO HCN   N/A     82 N/A N/A MISG        N/A
VALLEY HEAD      N/A     79 N/A N/A MISG        N/A
$$

TNZ076-096-097-291700-
SOUTHEASTERN MIDDLE TENNESSEE

CITY           SKY/WX    TMP DP  RH WIND       PRES   REMARKS
TULLAHOMA      CLOUDY    79  72  78 SW10      30.05R
WINCHESTER     CLOUDY    81  72  74 W5        30.03F
$$

...SURROUNDING SITES...

CITY           SKY/WX    TMP DP  RH WIND       PRES   REMARKS
ATLANTA        PTSUNNY   87  71  58 W9        30.05S HX  93
ANNISTON       MOSUNNY   86  69  56 W15       30.05R HX  90
BIRMINGHAM     PTSUNNY   85  72  65 VRB7      30.07S HX  91
CHATTANOOGA    CLOUDY    84  68  58 SW8       30.02R
DALTON         CLOUDY    82  72  69 S5        30.02S
GADSDEN        MOSUNNY   85  73  67 W9          N/A  HX  91
GOLDEN TRNGL   PTSUNNY   81  70  69 W7        30.04S
HALEYVILLE     CLOUDY    78  73  84 VRB7      30.08R
JACKSON TN     CLOUDY    78  74  87 SW8       30.00R
MEMPHIS        CLOUDY    82  73  74 SW8       29.99S
NASHVILLE      PTSUNNY   85  73  67 SW8       29.99S HX  91
OXFORD MS      FAIR      82  72  69 SW7       30.03F
ROME           CLOUDY    85  71  63 SW9       30.02S HX  90
SAVANNAH       CLOUDY    79  73  83 SW7       30.01S
TUPELO         CLOUDY    80  70  71 SW5       30.03R
TUSCALOOSA     CLOUDY    85  72  65 W6        30.03F HX  91
$$

...GULF COAST WEATHER...

CITY           SKY/WX    TMP DP  RH WIND       PRES   REMARKS
GULFPORT       MOSUNNY   88  75  65 W5        30.05S HX  97
PASCAGOULA     MOSUNNY   89  80  74 N5        30.06R HX 106
MOBILE         PTSUNNY   88  75  65 NW6       30.07S HX  97
GULF SHORES    MOSUNNY   88  78  72 W7        30.06R HX 102
PENSACOLA      MOSUNNY   88  76  67 VRB3      30.06R HX  99
DESTIN         SUNNY     91  79  67 SW7       30.06S HX 107
PANAMA CITY    MOSUNNY   89  76  64 S9        30.06S HX 100
APPALACHICOLA  SUNNY     90  78  68 SW10      30.06S HX 104
$$





USA.gov is the U.S. government's official web portal to all federal, state and local government web resources and services.